Weather History for Atwater, CA

Change the Weather History Date:

Saturday, October 19, 2013

  Actual Average (KMCE) Record (KMCE)
Temperature  
Mean Temperature 64 °F 63 °F  
Max Temperature 84 °F 77 °F 86 °F (2003)
Min Temperature 44 °F 48 °F 40 °F (1998)
Degree Days  
Heating Degree Days 1    
Month to date heating degree days  
Since 1 July heating degree days  
Cooling Degree Days 0    
Month to date cooling degree days  
Year to date cooling degree days  
Growing Degree Days 14 (Base 50)    
Moisture  
Dew Point 43 °F    
Average Humidity 68    
Maximum Humidity 100    
Minimum Humidity 18    
Precipitation  
Precipitation 0.00 in 0.03 in 0.74 in (2004)
Month to date precipitation 0.31  
Year to date precipitation 9.30  
Since 1 July precipitation 0.62  
Snow  
Snow 0.00 in - - ()
Month to date snowfall  
Since 1 July snowfall  
Since 1 September snowfall  
Snow Depth -    
Sea Level Pressure  
Sea Level Pressure 30.02 in    
Wind  
Wind Speed 1 mph (NNW)    
Max Wind Speed 7 mph    
Max Gust Speed -    
Visibility 10 miles    
Events      
T = Trace of Precipitation, MM = Missing Value Source: NWS Daily Summary

Daily Weather History Graph

Daily Weather History Graph

Search for Another Location

Airport:

Trip Planner

Search our weather history database for the weather conditions in past years. The results will help you decide how hot, cold, wet, or windy it might be!

Date:

Astronomy

Oct. 19, 2013 Rise Set
Actual Time 7:14 AM PDT 6:19 PM PDT
Civil Twilight 6:47 AM PDT 6:45 PM PDT
Nautical Twilight 6:17 AM PDT 7:16 PM PDT
Astronomical Twilight 5:47 AM PDT 7:46 PM PDT
Moon 6:52 PM PDT (10/19) 7:55 AM PDT (10/19)
Length of Visible Light 11h 57m
Length of Day
11h 04m
Full, 99% of the Moon is Illuminated
Oct 19
Full
Oct 26
Last Quarter
Nov 3
New
Nov 9
First Quarter
Nov 17
Full

Hourly Weather History & Observations

Time (PDT) Temp. Windchill Dew Point Humidity Pressure Visibility Wind Dir Wind Speed Gust Speed Precip Events Conditions
12:15 AM 53.6 °F - 41.0 °F 62% 30.01 in 10.0 mi Calm Calm - N/A   Clear
12:35 AM 53.6 °F - 42.8 °F 67% 30.02 in 10.0 mi Calm Calm - N/A   Clear
12:55 AM 53.6 °F - 42.8 °F 67% 30.02 in 10.0 mi Calm Calm - N/A   Clear
1:15 AM 51.8 °F - 44.6 °F 76% 30.02 in 10.0 mi Calm Calm - N/A   Clear
1:35 AM 51.8 °F - 44.6 °F 76% 30.02 in 10.0 mi Calm Calm - N/A   Clear
1:55 AM 48.2 °F - 44.6 °F 87% 30.02 in 10.0 mi Calm Calm - N/A   Clear
2:15 AM 48.2 °F - 44.6 °F 87% 30.02 in 10.0 mi Calm Calm - N/A   Clear
2:35 AM 48.2 °F - 44.6 °F 87% 30.02 in 10.0 mi Calm Calm - N/A   Clear
2:55 AM 46.4 °F - 44.6 °F 93% 30.02 in 10.0 mi Calm Calm - N/A   Clear
3:15 AM 46.4 °F - 46.4 °F 100% 30.02 in 10.0 mi Calm Calm - N/A   Clear
3:35 AM 46.4 °F - 46.4 °F 100% 30.02 in 10.0 mi Calm Calm - N/A   Clear
3:55 AM 44.6 °F 43.1 °F 44.6 °F 100% 30.02 in 10.0 mi East 3.5 mph - N/A   Clear
4:15 AM 44.6 °F 42.2 °F 44.6 °F 100% 30.02 in 10.0 mi SE 4.6 mph - N/A   Clear
4:35 AM 44.6 °F 43.1 °F 44.6 °F 100% 30.03 in 10.0 mi SSE 3.5 mph - N/A   Clear
4:55 AM 44.6 °F - 42.8 °F 93% 30.03 in 10.0 mi Calm Calm - N/A   Clear
5:15 AM 44.6 °F 43.1 °F 42.8 °F 93% 30.03 in 10.0 mi SSE 3.5 mph - N/A   Clear
5:35 AM 44.6 °F - 42.8 °F 93% 30.03 in 10.0 mi Calm Calm - N/A   Clear
5:55 AM 44.6 °F - 42.8 °F 93% 30.04 in 10.0 mi Calm Calm - N/A   Clear
6:15 AM 46.4 °F - 42.8 °F 87% 30.04 in 10.0 mi Calm Calm - N/A   Clear
6:35 AM 44.6 °F - 41.0 °F 87% 30.05 in 10.0 mi Calm Calm - N/A   Clear
6:45 AM 44.6 °F - 41.0 °F 87% 30.05 in 10.0 mi Calm Calm - N/A   Clear
6:55 AM 44.6 °F - 42.8 °F 93% 30.05 in 10.0 mi Calm Calm - N/A   Clear
7:45 AM 44.6 °F - 39.2 °F 81% 30.06 in 10.0 mi Calm Calm - N/A   Clear
8:45 AM 55.4 °F - 39.2 °F 54% 30.08 in 10.0 mi Calm Calm - N/A   Clear
10:45 AM 69.8 °F - 41.0 °F 35% 30.08 in 7.0 mi Calm Calm - N/A   Clear
11:45 AM 75.2 °F - 37.4 °F 25% 30.07 in 7.0 mi Calm Calm - N/A   Clear
12:55 PM 80.6 °F - 37.4 °F 21% 30.05 in 10.0 mi NNW 5.8 mph - N/A   Clear
1:45 PM 82.4 °F - 39.2 °F 21% 30.02 in 7.0 mi NW 4.6 mph - N/A   Clear
2:45 PM 84.2 °F - 35.6 °F 18% 30.01 in 7.0 mi NNW 4.6 mph - N/A   Clear
3:50 PM 84.2 °F - 35.6 °F 18% 29.99 in 10.0 mi WNW 5.8 mph - N/A   Clear
4:47 PM 84.2 °F - 37.4 °F 19% 29.98 in 10.0 mi NW 5.8 mph - N/A   Clear
5:45 PM 78.8 °F - 37.4 °F 23% 29.98 in 10.0 mi NNW 6.9 mph - N/A   Clear
6:45 PM 69.8 °F - 41.0 °F 35% 29.98 in 10.0 mi NNW 5.8 mph - N/A   Clear
7:45 PM 64.4 °F - 44.6 °F 49% 29.99 in 10.0 mi NW 4.6 mph - N/A   Clear
8:45 PM 60.8 °F - 42.8 °F 52% 30.00 in 10.0 mi WNW 4.6 mph - N/A   Clear
9:15 PM 59.0 °F - 44.6 °F 59% 30.00 in 10.0 mi NNW 3.5 mph - N/A   Clear
9:35 PM 57.2 °F - 44.6 °F 63% 30.00 in 10.0 mi Calm Calm - N/A   Clear
9:55 PM 55.4 °F - 46.4 °F 72% 30.00 in 7.0 mi North - - N/A   Clear
10:15 PM 53.6 °F - 48.2 °F 82% 30.01 in 5.0 mi North 3.5 mph - N/A   Clear
10:35 PM 55.4 °F - 48.2 °F 77% 30.01 in 9.0 mi NNW 3.5 mph - N/A   Clear
10:55 PM 57.2 °F - 46.4 °F 67% 30.01 in 10.0 mi NW 4.6 mph - N/A   Clear
11:15 PM 57.2 °F - 46.4 °F 67% 30.01 in 10.0 mi NW 4.6 mph - N/A   Clear
11:35 PM 57.2 °F - 46.4 °F 67% 30.00 in 10.0 mi NW 5.8 mph - N/A   Clear
11:55 PM 57.2 °F - 46.4 °F 67% 30.00 in 10.0 mi NNW 5.8 mph - N/A   Clear